EW0159 Weather Reports


Display with metric or nautical units.
time (UTC)temp
F
wind
direction
speed
MPH
gust
MPH
rain 1hr
in
rain 24hr
in
rain mn
in
humidity
%
barometer
mb
20260504000058 90 340 2.0 6.0 0.00 0.00 0.00 25 1006.8
20260503234553 90 101 2.0 7.0 0.00 0.00 0.00 27 1007.0
20260503233050 91 155 2.0 7.0 0.00 0.00 0.00 23 1007.2
20260503231552 91 70 3.0 7.0 0.00 0.00 0.00 24 1007.3
20260503230046 90 343 3.0 6.0 0.00 0.00 0.00 23 1007.5
20260503224548 90 54 3.0 9.0 0.00 0.00 0.00 22 1007.8
20260503223043 91 82 1.0 4.0 0.00 0.00 0.00 30 1008.0
20260503221537 89 163 3.0 8.0 0.00 0.00 0.00 26 1008.2
20260503220039 89 17 3.0 11.0 0.00 0.00 0.00 26 1008.5
20260503214541 90 34 3.0 7.0 0.00 0.00 0.00 27 1008.7
20260503213049 89 344 2.0 7.0 0.00 0.00 0.00 25 1008.9
20260503211527 89 23 1.0 5.0 0.00 0.00 0.00 28 1009.0
20260503210023 88 34 3.0 7.0 0.00 0.00 0.00 27 1009.2
20260503204521 88 68 3.0 7.0 0.00 0.00 0.00 28 1009.4
20260503203023 87 155 2.0 9.0 0.00 0.00 0.00 30 1009.6
20260503201514 87 86 4.0 9.0 0.00 0.00 0.00 31 1009.7
20260503200011 86 170 2.0 9.0 0.00 0.00 0.00 35 1009.9
20260503194509 85 33 2.0 10.0 0.00 0.00 0.00 32 1010.2
20260503193003 83 187 4.0 8.0 0.00 0.00 0.00 43 1010.2
20260503191606 82 146 2.0 4.0 0.00 0.00 0.00 53 1010.4
20260503190055 81 180 3.0 5.0 0.00 0.03 0.00 55 1010.6
20260503184611 80 184 1.0 4.0 0.00 0.03 0.00 55 1010.7
20260503183048 79 224 2.0 5.0 0.00 0.03 0.00 59 1010.9
20260503181544 77 182 1.0 4.0 0.00 0.03 0.00 56 1011.1
20260503180040 76 141 1.0 4.0 0.00 0.03 0.00 60 1011.3
20260503174545 74 148 2.0 5.0 0.00 0.03 0.00 64 1011.4
20260503173035 74 184 2.0 4.0 0.00 0.03 0.00 65 1011.5
20260503171534 73 165 1.0 3.0 0.00 0.03 0.00 63 1011.5
20260503081536 55 342 1.0 2.0 0.00 0.03 0.00 80 1012.3
20260503071512 58 331 1.0 4.0 0.00 0.03 0.00 82 1012.5
20260503054512 58 16 2.0 3.0 0.00 0.03 0.03 79 1012.5
20260503053006 58 340 0.0 3.0 0.00 0.03 0.03 79 1012.6
20260503051505 58 57 0.0 2.0 0.00 0.03 0.03 80 1012.8
20260503050006 59 13 0.0 2.0 0.00 0.03 0.03 80 1012.6
20260503044504 59 140 1.0 3.0 0.00 0.03 0.03 80 1012.7
20260503043005 59 42 1.0 3.0 0.00 0.03 0.03 81 1012.8
20260503041504 60 36 0.0 3.0 0.00 0.03 0.03 81 1012.9
20260503040005 61 34 1.0 3.0 0.00 0.03 0.03 81 1012.9
20260503034502 62 331 0.0 2.0 0.00 0.03 0.03 81 1012.6
20260503033002 64 331 0.0 2.0 0.00 0.03 0.03 80 1012.5
20260503031501 65 331 1.0 3.0 0.00 0.03 0.03 77 1012.6
20260503030003 66 240 0.0 2.0 0.00 0.03 0.03 74 1012.5
20260503024501 66 216 1.0 5.0 0.00 0.03 0.03 75 1012.3
20260503023100 67 173 2.0 6.0 0.00 0.03 0.03 77 1012.2
20260503021559 68 148 0.0 2.0 0.00 0.03 0.03 78 1011.5
20260503020104 69 148 0.0 1.0 0.00 0.03 0.03 76 1011.3
20260503014628 69 148 0.0 2.0 0.00 0.03 0.03 74 1011.1
20260503013059 69 148 0.0 2.0 0.00 0.03 0.03 73 1011.1
20260503011625 69 148 0.0 3.0 0.00 0.03 0.03 74 1011.0
20260503010057 70 148 1.0 2.0 0.00 0.03 0.03 72 1011.1
20260503004556 70 148 0.0 2.0 0.00 0.03 0.03 71 1011.2
20260503003057 69 148 1.0 4.0 0.00 0.03 0.03 71 1011.2
20260503001554 70 149 2.0 4.0 0.00 0.03 0.03 70 1011.1